User: anonymous   Login
Location: Wildcat Hills Observatory
(41.6350°N, 103.6812°W)
Time: 05:04:07
(UTC-06:00)
Language:

Cosmos 1634 Rocket - Orbit

View from above orbital plane
View from above orbital plane
View from above satellite
View from above satellite

Ground track
Ground track

The orbit data is extracted from the following two-line orbital elements,

1 15598U 85022B   15142.09203707  .00000132  00000-0  11897-3 0  9991
2 15598 082.9357 309.8270 0023448 068.2306 070.7856 13.76522992516303
Epoch (UTC): 22 May 2015 02:12:32
Eccentricity: 0.0023448
inclination: 82.9357°
perigee height: 959 km
apogee height: 993 km
right ascension of ascending node: 309.8270°
argument of perigee: 68.2306°
revolutions per day: 13.76522992
mean anomaly at epoch: 70.7856°
orbit number at epoch: 51630

The dashed part of the orbit path shows where the satellite is in the earth's shadow,  

DLR